User: anonymous   Login
Location: Pian di Sc�
(43.6333°N, 11.5500°E)
Time: 12:28:31
(UTC+00:00)
Language:

ATLAS 3B CENTAUR R/B - Orbit

View from above orbital plane
View from above orbital plane
View from above satellite
View from above satellite

Ground track
Ground track

The orbit data is extracted from the following two-line orbital elements,

1 28118U 03057B   20294.20975152  .00089769 -20946-5  88552-3 0  9990
2 28118  28.1113  14.4112 2311506 225.4626 113.2414 10.91967501413537
Epoch (UTC): 20 October 2020 05:02:02
Eccentricity: 0.2311506
inclination: 28.1113°
perigee height: 220 km
apogee height: 4188 km
right ascension of ascending node: 14.4112°
argument of perigee: 225.4626°
revolutions per day: 10.91967501
mean anomaly at epoch: 113.2414°
orbit number at epoch: 41353

The dashed part of the orbit path shows where the satellite is in the earth's shadow,  

DLR